KC5TIL Weather Reports


time (UTC)temp
C
wind
direction
speed
KPH
gust
KPH
rain 1hr
cm
rain 24hr
cm
rain mn
cm
humidity
%
barometer
mb
20260507224618 21 131 0.0 3.2 0.00 0.00 0.00 62 1016.5
20260507224115 21 98 0.0 1.6 0.00 0.00 0.00 60 1016.5
20260507223612 21 130 1.6 1.6 0.00 0.00 0.00 59 1016.4
20260507223109 21 140 1.6 3.2 0.00 0.00 0.00 57 1016.5
20260507222606 21 113 0.0 1.6 0.00 0.00 0.00 56 1016.6
20260507222102 21 129 0.0 1.6 0.00 0.00 0.00 56 1016.6
20260507221558 21 116 0.0 1.6 0.00 0.00 0.00 57 1016.6
20260507221055 21 109 0.0 1.6 0.00 0.00 0.00 52 1016.5
20260507220552 22 115 0.0 0.0 0.00 0.00 0.00 52 1016.6
20260507220050 22 118 0.0 0.0 0.00 0.00 0.00 55 1016.5
20260507215546 22 122 0.0 0.0 0.00 0.00 0.00 51 1016.6
20260507215044 22 115 0.0 0.0 0.00 0.00 0.00 50 1016.6
20260507214541 22 93 1.6 1.6 0.00 0.00 0.00 49 1016.7
20260507214037 22 78 1.6 1.6 0.00 0.00 0.00 48 1016.7
20260507213533 22 100 1.6 1.6 0.00 0.00 0.00 48 1016.8
20260507213031 22 79 1.6 1.6 0.00 0.00 0.00 49 1016.6
20260507212526 22 114 0.0 0.0 0.00 0.00 0.00 50 1016.9
20260507212023 22 121 0.0 1.6 0.00 0.00 0.00 53 1017.2
20260507211520 22 116 0.0 1.6 0.00 0.00 0.00 49 1017.1
20260507211016 22 123 0.0 1.6 0.00 0.00 0.00 50 1017.4
20260507210514 22 126 0.0 0.0 0.00 0.00 0.00 49 1017.4
20260507210010 22 115 0.0 1.6 0.00 0.00 0.00 51 1017.5
20260507205507 22 117 0.0 1.6 0.00 0.00 0.00 50 1017.8
20260507205003 22 110 0.0 3.2 0.00 0.00 0.00 49 1017.6
20260507204459 22 79 1.6 1.6 0.00 0.00 0.00 49 1017.5
20260507203957 21 70 1.6 3.2 0.00 0.00 0.00 50 1017.5
20260507203455 22 307 3.2 3.2 0.00 0.00 0.00 50 1017.3
20260507202951 21 118 0.0 1.6 0.00 0.00 0.00 52 1017.4
20260507202447 21 32 3.2 3.2 0.00 0.00 0.00 52 1017.2
20260507201943 21 88 3.2 11.3 0.00 0.00 0.00 52 1017.2
20260507201438 21 112 1.6 3.2 0.00 0.00 0.00 52 1017.2
20260507200936 21 359 3.2 4.8 0.00 0.00 0.00 52 1017.3
20260507200431 21 71 3.2 8.0 0.00 0.00 0.00 52 1017.4
20260507195927 22 83 3.2 4.8 0.00 0.00 0.00 51 1017.6
20260507195425 22 149 1.6 1.6 0.00 0.00 0.00 48 1017.8
20260507194922 22 117 1.6 1.6 0.00 0.00 0.00 49 1017.9
20260507194418 21 82 1.6 4.8 0.00 0.00 0.00 49 1018.0
20260507193915 21 98 1.6 3.2 0.00 0.00 0.00 49 1018.1
20260507193412 21 63 1.6 4.8 0.00 0.00 0.00 51 1018.0
20260507192909 21 81 4.8 8.0 0.00 0.00 0.00 49 1018.3
20260507192405 21 66 4.8 8.0 0.00 0.00 0.00 50 1018.5
20260507191902 21 121 3.2 4.8 0.00 0.00 0.00 49 1018.6
20260507191358 21 92 1.6 4.8 0.00 0.00 0.00 51 1018.6
20260507190854 22 171 3.2 3.2 0.00 0.00 0.00 49 1018.8
20260507190353 21 64 1.6 4.8 0.00 0.00 0.00 49 1019.0
20260507185851 21 64 3.2 9.7 0.00 0.00 0.00 50 1018.8
20260507185348 21 53 4.8 12.9 0.00 0.00 0.00 50 1018.8
20260507184845 21 165 4.8 12.9 0.00 0.00 0.00 48 1018.7
20260507184343 21 71 1.6 11.3 0.00 0.00 0.00 49 1018.8
20260507183839 22 9 6.4 12.9 0.00 0.00 0.00 49 1018.9
20260507183337 21 100 4.8 16.1 0.00 0.00 0.00 48 1018.7
20260507182834 21 169 3.2 11.3 0.00 0.00 0.00 51 1018.7
20260507182330 21 73 4.8 11.3 0.00 0.00 0.00 51 1018.9
20260507181826 21 17 8.0 14.5 0.00 0.00 0.00 48 1018.8
20260507181322 21 47 6.4 11.3 0.00 0.00 0.00 49 1019.0
20260507180819 21 59 4.8 9.7 0.00 0.00 0.00 51 1018.9
20260507180316 21 57 4.8 12.9 0.00 0.00 0.00 51 1019.0
20260507175811 21 4 6.4 12.9 0.00 0.00 0.00 51 1019.0
20260507175309 20 66 1.6 8.0 0.00 0.00 0.00 55 1019.2
20260507174806 20 338 9.7 11.3 0.00 0.00 0.00 52 1019.3
20260507174304 21 71 4.8 11.3 0.00 0.00 0.00 53 1019.3
20260507173801 20 237 1.6 4.8 0.00 0.00 0.00 54 1019.5
20260507173258 20 41 9.7 14.5 0.00 0.00 0.00 55 1019.6
20260507172754 20 72 3.2 11.3 0.00 0.00 0.00 57 1019.5
20260507172251 20 72 0.0 8.0 0.00 0.00 0.00 60 1019.6
20260507171747 20 20 8.0 14.5 0.00 0.00 0.00 58 1019.8
20260507171244 20 69 4.8 11.3 0.00 0.00 0.00 58 1019.7
20260507170741 20 127 1.6 9.7 0.00 0.00 0.00 61 1020.1
20260507170238 19 49 4.8 9.7 0.00 0.00 0.00 61 1020.2
20260507165733 19 98 3.2 4.8 0.00 0.00 0.00 59 1020.5
20260507165230 19 58 4.8 11.3 0.00 0.00 0.00 62 1020.7
20260507164726 20 69 3.2 4.8 0.00 0.00 0.00 60 1020.7
20260507164223 19 56 1.6 9.7 0.00 0.00 0.00 62 1020.9
20260507163720 19 77 3.2 8.0 0.00 0.00 0.00 60 1020.9
20260507163218 20 65 1.6 4.8 0.00 0.00 0.00 62 1020.8
20260507162713 19 106 1.6 9.7 0.00 0.00 0.00 62 1020.9
20260507162210 18 62 8.0 9.7 0.00 0.00 0.00 63 1020.9
20260507161706 18 339 6.4 11.3 0.00 0.00 0.00 64 1020.9
20260507161203 18 126 3.2 8.0 0.00 0.00 0.00 64 1020.9
20260507160659 18 43 6.4 8.0 0.00 0.00 0.00 63 1021.2
20260507160156 18 25 4.8 8.0 0.00 0.00 0.00 65 1020.9
20260507155651 18 44 4.8 11.3 0.00 0.00 0.00 65 1020.9
20260507155142 18 72 3.2 8.0 0.00 0.00 0.00 66 1020.7
20260507154638 17 99 1.6 4.8 0.00 0.00 0.00 68 1020.8
20260507154137 17 89 3.2 4.8 0.00 0.00 0.00 66 1020.8
20260507153633 17 100 3.2 4.8 0.00 0.00 0.00 67 1021.0
20260507153129 17 73 1.6 3.2 0.00 0.00 0.00 67 1021.0
20260507152625 17 70 1.6 3.2 0.00 0.00 0.00 69 1021.1
20260507152121 17 70 1.6 8.0 0.00 0.00 0.00 71 1021.2
20260507151617 17 21 1.6 4.8 0.00 0.00 0.00 71 1021.2
20260507151115 17 59 6.4 8.0 0.00 0.00 0.00 70 1021.3
20260507150612 17 107 0.0 3.2 0.00 0.00 0.00 70 1021.4
20260507150108 17 115 1.6 8.0 0.00 0.00 0.00 68 1021.2
20260507145604 17 18 4.8 8.0 0.00 0.00 0.00 68 1021.5
20260507145102 18 154 1.6 3.2 0.00 0.00 0.00 68 1021.3
20260507144557 17 87 3.2 9.7 0.00 0.00 0.00 68 1021.5
20260507144056 17 104 0.0 4.8 0.00 0.00 0.00 70 1021.6
20260507143552 17 38 4.8 4.8 0.00 0.00 0.00 71 1021.6
20260507143050 16 51 1.6 3.2 0.00 0.00 0.00 73 1021.5
20260507142550 16 85 3.2 8.0 0.00 0.00 0.00 73 1021.5
20260507142047 16 99 1.6 4.8 0.00 0.00 0.00 74 1021.6
20260507141543 16 53 4.8 8.0 0.00 0.00 0.00 75 1021.8
20260507141040 16 22 1.6 1.6 0.00 0.00 0.00 76 1021.6
20260507140537 16 123 4.8 8.0 0.00 0.00 0.00 76 1021.8
20260507140034 16 50 3.2 4.8 0.00 0.00 0.00 77 1021.9
20260507135531 15 94 3.2 4.8 0.00 0.00 0.00 77 1021.7
20260507135029 16 45 1.6 8.0 0.00 0.00 0.00 77 1021.8
20260507134525 15 85 1.6 3.2 0.00 0.00 0.00 80 1021.9
20260507134020 15 20 4.8 8.0 0.00 0.00 0.00 81 1021.9
20260507133517 15 9 4.8 8.0 0.00 0.00 0.00 80 1022.0
20260507133015 14 358 3.2 4.8 0.00 0.00 0.00 81 1022.0
20260507132511 14 59 3.2 4.8 0.00 0.00 0.00 82 1022.2
20260507132008 13 268 3.2 4.8 0.00 0.00 0.00 82 1022.1
20260507131505 13 95 0.0 3.2 0.00 0.00 0.00 82 1022.2
20260507131002 14 38 1.6 1.6 0.00 0.00 0.00 82 1022.2
20260507130459 14 125 0.0 1.6 0.00 0.00 0.00 82 1022.1
20260507125957 13 121 0.0 0.0 0.00 0.00 0.00 83 1022.3
20260507125455 13 120 0.0 1.6 0.00 0.00 0.00 83 1022.1
20260507124952 13 118 0.0 0.0 0.00 0.00 0.00 84 1022.4
20260507124448 13 116 0.0 0.0 0.00 0.00 0.00 84 1022.1
20260507123947 13 130 0.0 0.0 0.00 0.00 0.00 85 1022.1
20260507123444 13 127 0.0 1.6 0.00 0.00 0.00 84 1021.9
20260507122940 13 116 0.0 0.0 0.00 0.00 0.00 85 1021.9
20260507122436 13 118 0.0 0.0 0.00 0.00 0.00 86 1021.8
20260507121932 12 111 0.0 1.6 0.00 0.00 0.00 88 1021.9
20260507121427 12 78 1.6 1.6 0.00 0.00 0.00 89 1021.7
20260507120924 12 345 1.6 3.2 0.00 0.00 0.00 90 1021.7
20260507120420 12 152 0.0 1.6 0.00 0.00 0.00 90 1021.9
20260507115917 12 130 0.0 0.0 0.00 0.00 0.00 90 1021.8
20260507115413 12 150 1.6 3.2 0.00 0.00 0.00 90 1022.0
20260507114909 11 240 1.6 3.2 0.00 0.00 0.00 90 1022.0
20260507114406 11 152 0.0 3.2 0.00 0.00 0.00 90 1022.1
20260507113903 11 142 0.0 3.2 0.00 0.00 0.00 90 1022.0
20260507113400 11 169 1.6 1.6 0.00 0.00 0.00 90 1021.7
20260507112857 11 226 1.6 3.2 0.00 0.00 0.00 90 1021.7
20260507112354 11 270 3.2 3.2 0.00 0.00 0.00 90 1021.6
20260507111852 12 268 1.6 4.8 0.00 0.00 0.00 90 1021.5
20260507111349 12 22 1.6 3.2 0.00 0.00 0.00 90 1021.3
20260507110845 12 272 4.8 4.8 0.00 0.00 0.00 90 1021.6
20260507110341 12 319 1.6 3.2 0.00 0.00 0.00 90 1021.4
20260507105838 12 332 3.2 3.2 0.00 0.00 0.00 90 1021.2
20260507105335 12 90 1.6 1.6 0.00 0.00 0.00 91 1021.3
20260507104832 12 286 3.2 3.2 0.00 0.00 0.00 91 1021.3
20260507104328 12 45 0.0 1.6 0.00 0.00 0.00 90 1021.2
20260507103824 12 319 3.2 8.0 0.00 0.00 0.00 91 1021.0
20260507103321 12 327 4.8 4.8 0.00 0.00 0.00 91 1020.9
20260507102817 12 73 1.6 1.6 0.00 0.00 0.00 90 1020.7
20260507102314 12 68 0.0 3.2 0.00 0.00 0.00 90 1020.5
20260507101811 12 275 3.2 3.2 0.00 0.00 0.00 90 1020.6
20260507101310 12 143 0.0 1.6 0.00 0.00 0.00 90 1020.4
20260507100808 12 119 0.0 1.6 0.00 0.00 0.00 90 1020.4
20260507100306 12 108 0.0 1.6 0.00 0.00 0.00 89 1020.5
20260507095804 12 133 0.0 1.6 0.00 0.00 0.00 89 1020.2
20260507095300 12 109 0.0 0.0 0.00 0.00 0.00 88 1020.2
20260507094757 12 105 0.0 0.0 0.00 0.00 0.00 88 1020.3
20260507094254 12 101 0.0 1.6 0.00 0.00 0.00 88 1020.2
20260507093751 12 359 3.2 3.2 0.00 0.00 0.00 88 1020.0
20260507093249 12 86 0.0 3.2 0.00 0.00 0.00 87 1019.8
20260507092747 12 59 0.0 3.2 0.00 0.00 0.00 87 1019.8
20260507092242 12 65 1.6 4.8 0.00 0.00 0.00 87 1019.9
20260507091739 13 76 0.0 3.2 0.00 0.00 0.00 86 1019.8
20260507091236 13 60 1.6 3.2 0.00 0.00 0.00 86 1019.8
20260507090731 13 116 0.0 3.2 0.00 0.00 0.00 86 1019.8
20260507090228 13 14 4.8 4.8 0.00 0.00 0.00 86 1019.6
20260507085725 13 41 4.8 4.8 0.00 0.00 0.00 86 1019.6
20260507085217 13 115 0.0 1.6 0.00 0.00 0.00 86 1019.5
20260507084714 13 16 3.2 4.8 0.00 0.00 0.00 85 1019.3
20260507084210 13 57 1.6 4.8 0.00 0.00 0.00 85 1019.2
20260507083708 13 34 4.8 11.3 0.00 0.00 0.00 85 1019.2
20260507083204 13 87 3.2 4.8 0.00 0.00 0.00 85 1019.2
20260507082659 13 44 3.2 8.0 0.00 0.00 0.00 85 1019.4
20260507082155 13 54 3.2 4.8 0.00 0.00 0.00 85 1019.5
20260507081652 13 25 3.2 3.2 0.00 0.00 0.00 85 1019.7
20260507081143 13 72 1.6 4.8 0.00 0.00 0.00 84 1019.6
20260507080640 13 32 3.2 4.8 0.00 0.00 0.00 84 1019.6
20260507080136 13 11 3.2 4.8 0.00 0.00 0.00 84 1019.7
20260507075631 13 63 1.6 4.8 0.00 0.00 0.00 84 1019.5
20260507075127 13 92 0.0 1.6 0.00 0.00 0.00 84 1019.4
20260507074624 13 83 0.0 8.0 0.00 0.00 0.00 84 1019.5
20260507074123 13 72 1.6 3.2 0.00 0.00 0.00 84 1019.3
20260507073618 13 43 1.6 3.2 0.00 0.00 0.00 84 1019.4
20260507073114 13 46 1.6 8.0 0.00 0.00 0.00 83 1019.3
20260507072613 13 54 1.6 8.0 0.00 0.00 0.00 83 1019.1
20260507072110 13 98 1.6 8.0 0.00 0.00 0.00 84 1018.9
20260507071607 13 135 1.6 4.8 0.00 0.00 0.00 84 1018.9
20260507071103 13 312 3.2 4.8 0.00 0.00 0.00 83 1018.6
20260507070600 14 49 3.2 8.0 0.00 0.00 0.00 84 1018.6
20260507070057 14 352 1.6 3.2 0.00 0.00 0.00 84 1018.6
20260507065553 14 35 4.8 4.8 0.00 0.00 0.00 83 1018.6
20260507065051 14 352 1.6 4.8 0.00 0.00 0.00 83 1018.6
20260507064549 14 59 6.4 11.3 0.00 0.00 0.00 83 1018.6
20260507064047 15 33 4.8 4.8 0.00 0.00 0.00 83 1018.5
20260507063544 15 41 4.8 11.3 0.00 0.00 0.00 83 1018.6
20260507063041 14 93 0.0 9.7 0.00 0.00 0.00 83 1018.8
20260507062537 14 55 1.6 1.6 0.00 0.00 0.00 82 1018.9
20260507062035 15 53 1.6 3.2 0.00 0.00 0.00 82 1018.8
20260507061533 15 88 1.6 8.0 0.00 0.00 0.00 81 1018.6
20260507061031 15 101 0.0 4.8 0.00 0.00 0.00 81 1018.5
20260507060528 15 66 1.6 3.2 0.00 0.00 0.00 80 1018.5
20260507060025 15 92 0.0 11.3 0.00 0.00 0.00 79 1018.5
20260507055520 15 80 3.2 4.8 0.00 0.00 0.00 79 1018.4
20260507055017 15 63 3.2 9.7 0.00 0.00 0.00 79 1018.4
20260507054513 15 63 3.2 8.0 0.00 0.00 0.00 78 1018.7
20260507054010 15 68 3.2 4.8 0.00 0.00 0.00 78 1018.6
20260507053508 15 31 8.0 11.3 0.00 0.00 0.00 78 1018.6
20260507053006 15 52 4.8 9.7 0.00 0.00 0.00 77 1018.5
20260507052504 15 81 4.8 8.0 0.00 0.00 0.00 78 1018.6
20260507052000 15 46 4.8 8.0 0.00 0.00 0.00 78 1018.7
20260507051458 15 52 4.8 9.7 0.00 0.00 0.00 77 1018.6
20260507050954 15 53 1.6 4.8 0.00 0.00 0.00 78 1018.6
20260507050451 15 100 1.6 12.9 0.00 0.00 0.00 78 1018.5
20260507045948 15 42 8.0 11.3 0.00 0.30 0.30 78 1018.4
20260507045444 15 43 3.2 12.9 0.00 0.30 0.30 77 1018.7
20260507044942 15 117 6.4 14.5 0.00 0.30 0.30 77 1018.5
20260507044438 15 77 4.8 9.7 0.00 0.30 0.30 77 1018.7
20260507043934 15 55 4.8 11.3 0.00 0.30 0.30 77 1018.6
20260507043431 15 83 0.0 4.8 0.00 0.30 0.30 77 1018.7
20260507042927 15 54 6.4 12.9 0.00 0.30 0.30 76 1018.8
20260507042424 15 30 1.6 11.3 0.00 0.30 0.30 77 1018.7
20260507041920 15 7 8.0 11.3 0.00 0.30 0.30 76 1018.9
20260507041417 15 83 4.8 9.7 0.00 0.30 0.30 76 1019.0
20260507040914 15 84 1.6 9.7 0.00 0.30 0.30 76 1018.7
20260507040410 16 4 3.2 9.7 0.00 0.30 0.30 76 1018.9
20260507035906 16 98 3.2 8.0 0.00 0.30 0.30 77 1018.8
20260507035402 16 105 4.8 9.7 0.00 0.30 0.30 76 1018.8
20260507034859 16 58 4.8 16.1 0.00 0.30 0.30 75 1019.0
20260507034356 16 39 4.8 12.9 0.00 0.30 0.30 76 1018.9
20260507033854 16 46 8.0 14.5 0.00 0.30 0.30 76 1018.9
20260507033352 16 310 8.0 12.9 0.00 0.30 0.30 76 1018.9
20260507032848 16 33 8.0 14.5 0.00 0.30 0.30 77 1018.7
20260507032345 16 57 4.8 11.3 0.00 0.30 0.30 76 1018.8
20260507031841 16 94 3.2 9.7 0.00 0.30 0.30 77 1018.8
20260507031338 16 79 3.2 11.3 0.00 0.30 0.30 77 1018.6
20260507030835 16 79 1.6 8.0 0.00 0.30 0.30 78 1018.5
20260507030333 16 110 0.0 8.0 0.00 0.30 0.30 78 1018.6
20260507025829 16 78 1.6 4.8 0.00 0.30 0.30 78 1018.8
20260507025326 16 35 4.8 4.8 0.00 0.30 0.30 78 1018.5
20260507024824 16 58 3.2 8.0 0.00 0.30 0.30 78 1018.7
20260507024321 16 51 3.2 9.7 0.00 0.30 0.30 78 1018.4
20260507023817 16 78 1.6 8.0 0.00 0.30 0.30 78 1018.2
20260507023314 16 336 4.8 8.0 0.00 0.30 0.30 78 1018.2
20260507022811 16 70 3.2 8.0 0.00 0.30 0.30 78 1018.0
20260507022307 16 21 3.2 9.7 0.00 0.30 0.30 78 1017.8
20260507021803 16 50 1.6 8.0 0.00 0.30 0.30 79 1017.5
20260507021259 16 1 8.0 11.3 0.00 0.30 0.30 79 1017.5
20260507020757 16 77 4.8 12.9 0.00 0.30 0.30 79 1017.4
20260507020254 16 10 6.4 11.3 0.00 0.30 0.30 80 1017.4
20260507015751 16 25 1.6 4.8 0.00 0.30 0.30 81 1017.1
20260507015248 16 52 3.2 4.8 0.00 0.30 0.30 81 1017.2
20260507014745 16 37 1.6 8.0 0.00 0.30 0.30 80 1017.0
20260507014241 16 79 4.8 4.8 0.00 0.30 0.30 81 1016.9
20260507013738 16 67 4.8 9.7 0.00 0.30 0.30 81 1016.8
20260507013236 16 101 1.6 14.5 0.00 0.30 0.30 80 1016.8
20260507012733 16 55 3.2 9.7 0.00 0.30 0.30 80 1016.5
20260507012228 16 33 9.7 12.9 0.00 0.30 0.30 80 1016.4
20260507011726 16 26 1.6 11.3 0.00 0.30 0.30 80 1016.3
20260507011223 16 98 3.2 9.7 0.00 0.30 0.30 81 1016.2
20260507010722 16 44 1.6 8.0 0.00 0.30 0.30 82 1016.3
20260507010218 16 12 8.0 11.3 0.00 0.30 0.30 83 1016.3
20260507005716 16 351 1.6 3.2 0.00 0.30 0.30 87 1016.1
20260507005212 16 107 0.0 1.6 0.00 0.30 0.30 87 1016.3
20260507004709 16 54 1.6 1.6 0.00 0.30 0.30 87 1016.0
20260507004207 16 85 0.0 3.2 0.00 0.30 0.30 86 1016.0
20260507003703 16 113 1.6 3.2 0.00 0.30 0.30 86 1016.1
20260507003158 16 97 0.0 1.6 0.00 0.30 0.30 86 1016.0
20260507002654 16 104 0.0 1.6 0.00 0.30 0.30 86 1016.1
20260507002150 16 42 4.8 8.0 0.00 0.30 0.30 86 1015.9
20260507001647 16 81 1.6 3.2 0.00 0.30 0.30 86 1015.9
20260507001144 16 73 1.6 3.2 0.00 0.30 0.30 86 1015.9
20260507000641 16 86 3.2 4.8 0.00 0.30 0.30 85 1015.8
20260507000136 16 43 1.6 4.8 0.00 0.30 0.30 86 1015.8
20260506235634 16 81 1.6 4.8 0.00 0.30 0.30 86 1015.7
20260506235134 16 29 0.0 3.2 0.00 0.30 0.30 86 1015.7
20260506234631 16 66 1.6 4.8 0.00 0.30 0.30 85 1015.7
20260506234128 16 79 4.8 4.8 0.00 0.30 0.30 85 1015.7
20260506233625 16 31 4.8 4.8 0.00 0.30 0.30 86 1015.5
20260506233122 16 77 1.6 1.6 0.00 0.30 0.30 86 1015.4
20260506232618 16 58 4.8 8.0 0.00 0.30 0.30 86 1015.5
20260506232114 16 105 0.0 4.8 0.00 0.30 0.30 85 1015.3
20260506231611 16 50 4.8 8.0 0.00 0.30 0.30 83 1015.4
20260506231109 16 67 4.8 8.0 0.00 0.30 0.30 85 1015.5
20260506230606 16 62 4.8 9.7 0.00 0.30 0.30 86 1015.4
20260506230103 15 34 3.2 3.2 0.00 0.30 0.30 87 1015.1
20260506225559 15 56 3.2 4.8 0.00 0.30 0.30 88 1015.1
20260506225056 15 28 1.6 9.7 0.00 0.30 0.30 90 1015.2